Theta_e
310 310 310 311 311 311 310 310 310 308 306 304 303 302 301 299 301 302 298 297 295 289 290 293 293 290 290 289 285 290 288 290 289 286 286 285 285 286 285 287 284 282 281 280 281 280 277 289 286 282 285 289 291 293
309 309 309 310 310 310 310 310 309 307 305 303 302 301 301 300 301 302 296 297 297 291 291 297 296 297 295 295 291 290 289 288 289 286 289 287 285 287 285 282 289 282 284 281 282 283 287 286 286 289 292 292 293 294
308 309 309 309 310 310 309 309 308 306 304 303 303 301 301 300 301 301 299 299 296 292 292 293 294 299 300 298 298 287 291 293 293 296 290 288 285 288 284 285 285 288 287 284 284 287 285 287 290 291 295 293 294 296
307 308 308 309 309 309 309 308 307 305 304 302 302 301 301 301 300 301 298 299 297 292 286 291 300 299 303 301 297 295 295 297 296 295 291 288 286 291 287 287 286 286 285 285 286 288 290 290 290 293 293 294 294 296
306 307 308 308 309 309 308 307 306 304 303 302 302 301 301 302 301 299 298 299 299 292 288 292 298 300 301 299 298 297 295 294 294 292 290 289 292 290 290 289 287 286 285 284 283 287 289 288 292 294 292 291 293 293
305 306 307 307 308 308 308 306 305 304 302 302 301 302 302 300 300 297 293 299 299 298 291 287 297 297 300 300 300 302 297 295 295 295 294 294 295 291 287 286 287 290 293 293 288 293 294 294 294 295 293 293 293 293
304 305 306 307 308 308 307 306 304 303 302 302 301 301 300 300 299 293 293 298 301 299 292 287 291 297 298 299 305 303 304 303 300 299 296 294 294 293 288 285 287 292 294 295 296 295 292 293 292 295 294 295 295 294
302 304 305 306 307 308 306 305 303 302 302 301 301 300 300 300 300 296 301 302 302 296 294 288 290 293 300 300 300 305 300 300 300 299 297 294 294 292 287 289 292 294 295 295 295 296 295 295 295 294 295 294 292 292
302 304 304 306 307 307 305 304 302 302 301 301 301 300 299 297 293 297 304 305 301 296 290 289 286 289 299 300 301 301 300 294 300 295 295 294 289 287 289 292 292 294 294 294 296 296 295 294 294 294 294 294 293 291
302 303 304 305 306 306 304 302 302 301 301 301 299 294 291 296 302 304 300 295 293 295 294 289 294 290 297 298 297 295 297 293 289 293 296 289 289 295 297 295 295 296 297 297 294 293 294 293 293 292 292 292 292 292
301 303 304 304 306 304 302 302 301 301 300 296 294 292 298 299 298 297 292 291 292 290 293 293 294 292 299 294 295 297 293 294 289 292 291 288 288 293 296 295 296 297 297 297 297 296 296 295 293 292 293 294 294 294
302 303 304 305 304 303 302 300 301 298 296 295 296 296 296 296 293 290 289 291 290 289 295 294 296 294 298 298 296 297 293 292 287 296 290 286 292 294 295 295 296 297 297 297 297 295 295 295 296 295 294 294 294 294
302 302 302 304 303 302 300 300 299 298 299 298 295 292 292 291 285 284 283 287 289 295 298 298 296 298 299 298 297 296 291 289 298 290 287 290 295 295 296 297 297 298 299 296 296 296 296 296 296 295 294 294 294 294
301 302 304 303 302 300 300 300 300 299 296 291 289 284 286 285 286 288 289 292 297 296 297 297 297 297 299 296 297 291 295 294 288 287 286 292 296 297 296 299 299 298 298 296 296 296 296 295 295 295 295 295 294 293
300 302 303 301 300 300 300 300 300 297 293 289 290 283 285 290 292 294 295 295 297 299 299 297 296 297 296 294 296 294 290 288 289 288 291 296 299 297 295 298 299 299 296 295 296 296 295 295 295 294 295 295 295 294
302 301 297 299 299 300 300 299 297 296 293 289 288 286 289 289 290 293 295 296 299 299 298 298 295 293 293 294 291 290 289 287 291 294 297 299 298 297 296 296 297 297 296 296 297 297 296 296 295 294 295 295 295 294
295 291 298 298 300 300 299 296 295 291 289 287 287 290 290 291 292 294 295 296 299 298 296 296 290 290 296 292 291 294 291 294 297 297 299 301 300 299 298 296 296 296 296 297 297 298 297 297 297 295 294 294 295 295
292 296 298 300 300 298 295 295 292 289 286 288 286 289 291 293 293 294 296 298 299 298 298 295 298 292 291 289 292 296 297 297 299 299 300 301 300 300 297 296 296 296 296 296 297 297 297 297 297 296 296 296 295 295
295 296 299 300 297 294 290 290 292 286 288 290 291 292 293 294 295 297 299 299 300 302 300 299 294 292 294 298 298 298 299 299 298 300 302 303 300 298 298 298 297 297 297 296 296 296 297 298 297 297 297 296 296 296
299 299 300 299 297 293 290 290 295 290 288 292 293 291 294 295 298 299 299 298 299 299 297 295 296 299 300 300 301 300 301 302 301 300 301 302 304 303 299 296 296 297 297 297 297 294 296 296 297 297 297 297 297 296
297 297 298 295 293 292 291 292 292 293 293 292 293 293 294 297 297 297 298 301 299 297 296 300 301 302 304 302 301 301 302 303 303 303 302 302 303 304 301 298 298 296 296 295 294 294 293 295 296 296 296 297 298 298
295 297 293 294 290 290 290 293 291 294 292 293 293 294 293 293 295 296 300 297 297 300 302 301 302 302 302 301 302 302 303 304 304 303 298 300 302 303 303 298 296 296 296 296 296 295 296 297 296 296 297 297 295 297
296 295 292 291 288 287 287 293 289 291 288 290 292 291 291 293 297 299 296 298 299 302 303 303 304 304 301 300 302 303 303 303 304 304 303 302 302 303 303 304 302 298 298 299 299 297 298 294 294 296 297 296 297 296
297 292 288 286 287 284 291 289 290 290 291 290 291 290 292 294 298 296 292 295 300 302 303 303 302 298 299 301 301 300 303 303 303 304 305 302 301 300 302 302 304 306 305 304 300 300 298 296 294 297 297 296 296 296
285 286 287 284 288 286 286 287 288 288 286 289 289 291 293 296 292 291 292 296 299 301 302 303 302 301 299 299 301 301 303 304 303 302 303 303 302 302 301 304 305 306 307 306 303 301 301 299 298 297 297 297 296 295
280 285 285 285 286 286 287 286 287 288 288 289 291 295 296 293 289 289 293 298 300 301 301 302 301 299 300 300 300 301 301 303 303 302 303 304 303 303 303 302 302 304 307 307 304 302 301 302 298 296 296 296 290 299
281 283 287 291 290 290 289 290 291 291 289 288 292 292 290 286 286 292 298 302 302 303 304 304 304 302 302 300 301 302 302 303 305 304 306 307 305 306 304 303 302 306 306 307 306 306 305 304 302 301 301 301 302 302
286 288 284 288 288 290 288 288 289 289 291 295 294 287 285 288 291 298 301 304 303 304 304 304 305 304 302 302 302 302 301 302 301 301 304 305 305 304 304 306 309 293 306 308 307 306 306 305 304 304 304 303 303 303
286 289 289 287 289 289 289 289 291 294 298 297 292 289 290 296 300 302 302 304 304 304 302 300 301 303 303 302 303 302 301 301 300 299 298 298 301 303 305 305 304 303 304 304 289 297 304 305 305 305 305 305 305 305
286 290 288 287 287 289 293 295 296 299 299 299 300 297 297 298 301 305 304 304 302 301 301 301 301 303 302 302 302 301 301 303 304 302 301 301 302 303 304 304 304 304 305 304 301 298 288 296 294 300 299 301 301 300
290 290 288 289 290 294 296 300 300 299 299 297 297 296 295 297 300 301 301 304 303 302 300 299 301 303 303 303 300 298 298 301 300 300 301 301 301 302 302 302 304 306 305 305 305 304 303 301 299 299 299 300 300 297
290 289 288 287 291 297 299 297 296 296 296 295 295 297 298 296 293 298 301 303 302 301 295 301 301 301 303 303 304 303 293 301 299 299 300 298 297 298 299 299 300 302 303 302 302 302 301 300 299 298 298 299 301 301
290 291 291 292 292 292 295 295 293 292 294 294 295 296 296 296 294 300 303 304 303 301 302 301 301 301 302 302 301 298 293 298 291 286 286 286 286 290 299 301 300 301 299 299 300 301 299 298 297 298 297 296 298 301
Wind_Speed
19 19 19 19 18 15 13 11 13 12 11 9 8 5 5 4 6 3 1 5 3 4 10 9 5 9 7 5 4 6 7 0 3 5 3 5 3 4 4 4 6 5 8 5 5 5 7 22 18 11 8 10 14 15
20 20 19 20 19 18 14 13 14 13 12 10 9 5 6 5 6 4 2 3 4 4 8 13 19 23 23 22 5 3 4 3 3 3 2 3 3 4 6 5 5 3 3 6 4 5 8 14 11 12 8 10 13 14
22 21 21 20 20 19 16 15 16 15 13 11 10 7 7 6 7 5 2 1 2 4 8 4 7 7 11 18 13 4 4 4 3 1 2 2 4 2 4 4 5 3 3 4 6 2 12 14 13 12 15 15 16 17
21 22 22 21 21 19 16 16 17 15 13 11 10 8 9 7 7 7 3 1 1 3 4 7 4 9 7 7 12 16 12 4 5 2 2 2 3 1 2 4 3 3 8 9 4 5 8 13 15 15 16 17 19 20
22 22 22 22 21 20 18 18 18 18 15 13 10 10 9 9 6 5 5 6 7 2 4 9 18 5 5 5 11 15 12 5 3 2 2 2 2 4 1 2 2 5 5 5 4 11 8 11 15 17 17 19 18 20
22 22 22 23 22 20 17 18 18 16 15 13 10 10 6 4 4 0 2 3 6 5 3 5 5 6 7 6 5 8 7 5 3 2 1 1 2 3 3 3 2 9 10 5 4 10 7 8 14 14 17 18 20 21
23 23 23 22 22 19 19 19 19 17 15 12 11 8 5 5 3 3 0 2 6 3 3 5 6 4 5 3 1 1 3 2 3 2 1 1 3 2 2 3 9 11 12 9 4 5 9 16 9 14 16 15 22 23
26 24 23 23 22 19 20 21 18 16 14 12 10 6 5 5 6 6 6 13 6 2 2 4 6 5 1 2 2 0 2 1 1 1 1 2 2 2 1 4 7 9 6 9 9 10 11 10 13 15 13 14 20 20
25 24 24 24 22 20 21 21 17 16 12 10 6 3 1 4 4 3 5 6 5 2 3 2 3 4 3 1 2 1 0 2 1 1 1 1 2 3 4 8 6 7 5 6 8 10 11 13 13 12 13 15 19 16
26 25 24 24 23 22 23 22 18 14 12 9 4 3 3 5 4 8 3 3 3 4 4 5 2 5 2 1 1 1 1 2 0 1 2 2 1 3 7 4 2 7 7 4 8 9 10 10 11 12 12 11 13 13
26 26 24 28 18 26 24 22 20 15 7 4 4 4 2 3 4 3 3 4 4 4 5 5 6 5 3 3 2 1 2 1 2 2 0 1 2 3 7 5 3 6 7 7 8 8 8 10 10 11 11 12 13 14
25 26 22 24 25 26 25 22 20 8 4 4 3 3 1 3 3 4 5 3 4 4 5 4 3 6 3 3 2 1 2 1 1 2 1 2 2 8 6 8 3 3 6 7 6 8 9 10 10 12 11 12 12 12
25 25 30 24 27 26 24 22 18 10 9 2 2 3 4 4 5 7 9 5 5 5 5 4 2 2 3 4 3 1 3 1 2 1 2 1 4 7 7 6 4 2 2 4 9 10 11 11 11 11 11 10 11 11
27 25 22 25 26 24 22 22 20 13 3 3 6 6 7 6 7 7 6 3 3 3 4 3 2 2 1 3 2 3 0 2 1 1 3 1 1 7 7 8 8 5 2 7 8 10 11 11 11 11 10 9 10 10
26 19 24 23 24 23 20 19 17 3 3 4 4 6 8 4 3 3 5 2 3 2 2 2 2 2 2 3 2 1 3 0 2 2 3 4 4 5 6 6 6 4 6 6 7 9 11 11 10 10 9 9 10 10
15 21 7 23 21 21 20 16 4 1 2 3 5 3 2 3 3 3 4 3 3 3 2 1 1 2 2 2 3 3 1 2 2 4 5 5 8 5 4 4 4 4 6 7 7 9 9 10 10 10 9 9 9 10
15 3 20 22 20 19 18 4 3 5 4 5 5 4 3 2 3 3 3 3 3 3 2 2 3 0 2 3 2 1 1 1 1 3 4 5 9 7 5 6 6 6 6 6 7 8 8 9 10 10 10 8 9 9
3 12 24 22 16 13 2 0 3 4 6 5 3 4 4 3 2 3 3 3 4 3 3 2 2 2 2 2 1 1 2 2 1 4 4 2 4 7 8 8 8 8 8 7 7 7 8 8 8 6 8 8 8 8
11 13 23 21 9 4 4 4 3 4 6 2 3 2 3 2 4 3 2 3 2 1 3 3 3 2 2 1 1 1 2 2 4 3 4 3 3 5 7 8 8 8 9 9 8 6 6 8 6 7 7 7 6 6
20 21 22 15 2 1 4 3 2 3 4 3 3 3 2 3 3 4 5 4 4 3 3 3 3 1 1 3 1 1 1 4 6 5 4 4 3 6 8 8 8 9 8 8 6 6 6 6 5 6 7 7 7 7
11 9 8 2 1 1 2 2 5 3 2 2 2 3 2 2 3 4 3 5 4 3 3 2 2 2 4 3 2 1 2 4 3 2 3 5 4 3 4 5 7 7 7 8 7 7 7 7 7 7 7 7 6 6
4 7 3 1 2 2 3 2 3 1 1 0 3 3 2 3 2 3 3 3 3 3 3 3 2 5 3 3 3 2 2 5 4 4 5 7 5 4 4 5 7 7 6 7 8 8 8 7 7 7 7 7 6 6
7 3 2 1 3 1 2 1 3 3 4 3 3 3 2 3 2 3 4 2 2 2 3 2 4 4 4 4 4 4 3 3 3 3 4 4 4 3 4 4 5 7 6 4 5 5 6 7 8 8 7 7 7 6
3 3 4 4 4 3 2 3 2 2 1 2 2 3 4 3 4 3 3 2 2 3 4 6 6 5 4 4 3 2 3 2 3 4 4 5 5 3 2 2 2 3 5 4 5 5 5 6 7 8 9 9 8 8
2 1 2 2 2 4 5 4 4 2 2 3 2 2 4 3 4 3 3 2 4 5 6 6 5 4 4 4 3 2 3 2 3 4 3 3 5 4 3 2 3 2 4 6 7 8 7 6 5 6 8 8 9 9
4 5 5 5 3 3 2 3 4 4 3 4 3 2 1 2 2 2 2 4 5 7 6 6 6 5 3 3 4 4 2 3 3 3 3 4 4 3 4 3 4 4 4 4 6 6 7 7 8 8 7 8 6 8
2 3 3 3 2 1 2 2 2 2 4 4 3 3 2 3 3 2 1 2 3 4 3 4 4 4 4 3 2 2 3 3 1 3 4 4 3 3 3 3 4 2 6 7 6 7 8 9 10 10 9 10 10 12
2 2 1 1 1 2 3 2 3 3 3 2 3 3 4 3 2 2 0 1 3 5 5 5 4 5 5 4 4 5 5 4 5 5 5 5 3 2 1 2 1 5 5 7 6 5 6 7 7 7 8 9 10 11
2 1 2 3 3 3 3 2 1 1 2 3 3 3 3 2 1 3 1 3 5 7 8 7 5 5 6 5 4 4 4 5 5 6 3 3 3 3 3 3 4 3 3 4 2 3 7 7 7 7 7 8 9 8
2 3 2 3 3 2 1 1 1 1 1 2 2 2 2 2 3 3 5 4 5 7 7 6 5 6 6 5 6 7 5 3 2 1 2 3 2 2 1 2 3 3 3 3 3 3 3 3 2 2 4 4 4 5
1 3 3 2 1 2 2 1 1 2 2 4 3 2 4 3 2 3 4 3 5 6 7 7 6 5 5 4 5 4 5 4 5 7 5 4 4 3 2 2 1 1 1 2 2 2 2 2 3 4 5 5 4 4
3 4 2 1 2 2 0 2 2 3 2 2 1 2 3 2 4 2 3 1 4 5 4 6 7 6 5 5 5 5 5 4 4 4 5 3 4 4 4 3 3 1 1 2 2 1 1 2 2 3 4 7 8 7
2 2 2 2 2 2 3 3 3 2 2 2 2 3 3 2 4 2 2 2 2 6 6 6 6 5 7 7 6 5 5 6 6 5 5 5 4 3 2 1 1 2 1 1 3 3 3 4 5 6 6 6 8 9
Wind_Direction
290 284 282 278 272 260 248 241 215 204 207 210 220 219 261 275 287 311 271 197 201 254 278 254 241 248 264 253 268 333 324 161 302 347 342 347 307 341 292 283 341 319 328 333 317 312 339 352 326 352 306 301 314 321
293 286 283 279 273 260 242 233 202 200 200 204 224 225 249 263 275 281 262 179 180 230 264 288 271 258 251 250 289 283 268 306 272 313 349 304 310 315 312 320 7 343 358 309 327 325 306 311 313 327 333 328 346 345
295 292 288 283 274 260 241 220 195 193 195 200 221 230 246 258 270 274 261 231 207 265 283 270 236 243 222 231 214 234 241 246 239 334 304 279 287 323 320 351 302 296 38 270 302 29 320 332 348 339 354 9 11 22
298 293 288 283 277 262 239 210 194 187 192 199 214 226 245 256 258 260 243 214 201 280 286 282 274 272 265 204 184 203 245 307 324 264 291 277 278 114 319 317 312 328 317 314 271 305 325 358 4 5 24 25 30 40
300 296 292 285 275 260 232 198 189 180 187 206 204 218 240 248 259 274 260 244 227 234 295 294 302 260 260 216 209 209 228 235 256 242 225 261 312 334 338 253 28 332 327 346 321 319 355 358 9 14 36 34 37 50
302 298 295 288 278 255 214 192 187 181 185 201 212 226 233 253 262 228 276 169 200 181 269 294 315 275 304 300 262 211 206 209 243 242 246 88 83 322 327 334 288 332 324 315 290 318 13 28 21 23 39 40 44 51
303 301 297 289 280 250 202 186 186 178 187 196 205 227 227 237 220 213 343 62 174 154 255 287 284 267 299 294 256 166 204 236 254 299 341 118 33 352 19 354 315 330 332 3 4 317 40 37 31 28 35 39 55 55
302 299 297 290 279 240 191 179 175 189 177 196 204 216 242 243 256 257 238 221 190 253 254 273 276 289 224 301 303 259 286 242 236 359 98 26 23 339 12 315 342 345 352 46 51 58 67 64 49 42 42 45 51 47
297 295 295 292 278 219 178 169 174 184 176 188 182 194 240 196 219 231 225 165 163 267 271 249 272 286 349 274 266 254 13 264 340 145 69 111 360 25 297 326 1 6 36 71 70 75 72 64 62 47 50 61 68 57
295 292 291 288 283 183 166 164 165 181 170 159 163 158 220 206 210 158 187 162 171 202 229 250 252 265 291 308 250 272 178 258 210 77 105 59 179 264 355 86 24 27 59 49 74 74 87 80 79 67 59 60 74 77
293 288 291 306 208 167 165 157 165 154 155 174 177 213 106 276 174 189 197 217 171 219 211 228 231 269 190 240 293 207 300 318 261 113 137 120 25 60 24 102 88 53 76 64 67 71 83 99 107 100 93 86 81 80
289 288 278 285 176 165 159 162 164 159 176 159 126 86 194 192 184 208 198 196 214 235 194 208 219 212 252 217 247 194 272 327 273 123 128 89 75 62 28 128 112 89 84 79 83 87 98 103 104 100 98 92 88 89
279 280 299 194 167 162 158 162 155 136 132 113 144 161 211 174 181 207 200 189 207 199 193 193 248 240 204 222 238 239 265 259 239 63 70 88 64 128 117 139 147 176 84 98 111 96 102 105 106 105 100 95 93 87
286 287 237 165 158 155 162 161 155 145 108 168 163 200 222 190 210 190 204 184 185 188 171 180 248 254 222 225 205 237 176 152 237 176 82 196 340 150 153 177 178 170 89 127 115 113 113 112 110 108 108 116 111 102
283 248 153 153 153 157 160 157 147 107 149 180 183 225 212 222 217 204 209 248 192 168 175 180 198 256 241 256 222 311 214 25 328 60 176 173 262 164 163 183 186 154 134 129 127 126 124 124 118 113 115 116 116 117
206 130 119 149 154 155 149 132 96 164 152 217 218 233 237 205 190 185 189 209 163 150 134 161 152 217 244 262 232 223 260 122 173 143 207 171 165 164 163 158 147 143 145 137 138 136 133 133 129 122 123 123 124 125
82 95 154 157 155 151 137 126 144 194 210 214 223 211 223 284 181 143 197 190 155 192 183 169 206 171 302 242 220 184 353 96 160 159 167 154 170 179 158 158 148 149 150 144 140 140 130 126 132 133 130 131 132 131
82 147 157 152 144 130 59 166 184 180 233 227 212 194 189 227 145 197 212 184 176 169 174 192 146 215 250 252 92 122 112 90 99 137 137 157 155 165 162 155 160 161 152 152 150 139 139 146 144 132 128 129 123 123
143 151 156 149 153 121 149 174 223 241 219 217 221 192 190 185 220 253 203 169 199 214 167 187 188 202 238 184 281 152 166 160 143 139 135 174 163 156 169 158 156 155 155 156 157 160 163 167 152 145 146 155 149 149
143 149 151 161 94 127 144 168 190 242 221 207 187 173 192 192 190 198 184 170 174 199 192 206 214 185 175 114 311 299 175 144 143 140 143 153 168 167 168 166 171 162 155 151 153 148 153 155 161 163 167 171 164 164
96 124 117 73 353 247 279 188 204 226 225 212 133 191 183 192 193 174 156 164 194 207 201 192 189 158 142 129 171 196 175 171 165 159 159 157 161 163 148 158 153 166 168 167 167 169 175 177 168 172 169 176 182 173
94 125 116 150 247 223 260 220 269 298 230 86 190 193 176 184 184 184 142 184 212 211 182 171 184 164 163 155 136 152 113 174 161 112 98 121 140 148 147 155 162 174 177 181 180 176 182 172 162 169 178 171 176 175
119 104 87 184 239 189 282 194 245 204 211 164 146 175 182 187 155 152 203 198 223 178 167 162 145 133 132 113 123 115 118 142 148 155 149 117 107 113 124 146 168 167 167 186 198 188 173 166 167 171 173 171 174 174
98 153 195 196 211 219 211 221 221 229 200 194 209 187 154 143 164 218 215 186 193 151 158 152 141 117 106 123 135 123 136 155 133 131 138 143 138 130 138 154 177 201 195 178 180 179 162 168 159 175 176 178 183 186
90 214 187 197 212 221 208 180 184 187 207 195 223 179 145 164 197 194 202 202 171 164 156 153 153 150 144 133 144 156 155 172 150 132 143 135 115 119 107 129 151 173 168 167 171 170 168 145 161 189 187 185 188 187
217 194 205 206 165 232 167 165 177 196 201 191 217 107 114 148 168 231 193 191 167 163 162 164 154 148 156 174 165 171 171 159 147 131 151 172 176 169 180 175 175 168 181 187 156 157 162 160 157 160 171 173 208 182
222 205 199 229 263 285 272 233 263 216 196 200 165 131 167 216 208 241 201 175 152 135 150 154 163 160 159 158 139 121 121 134 112 91 117 147 154 197 178 200 212 200 166 182 182 181 183 183 180 184 186 187 205 210
282 299 235 97 218 238 264 257 207 206 190 146 120 161 184 224 154 135 343 81 91 97 100 99 113 117 111 121 126 120 106 103 96 99 117 99 88 104 153 228 213 144 165 179 188 193 199 192 194 203 206 214 214 213
267 256 235 236 227 228 240 247 254 222 148 177 156 161 171 221 14 111 59 112 136 134 120 112 94 105 94 79 68 74 110 132 149 153 139 114 130 105 70 90 113 124 139 149 137 196 205 212 223 234 232 235 239 230
241 202 234 234 235 228 31 227 348 71 71 61 75 88 125 67 44 33 97 115 130 113 109 107 110 108 110 110 104 81 51 50 49 114 134 104 106 64 84 95 98 105 122 135 140 132 106 163 170 200 226 227 226 217
235 201 240 237 288 13 4 44 66 73 69 75 30 60 79 67 80 51 65 62 96 112 113 106 96 97 106 97 105 98 86 44 59 62 67 81 77 63 58 68 52 109 136 141 170 216 232 224 238 248 246 252 245 237
197 209 234 161 89 14 21 55 35 59 86 112 64 51 79 96 76 70 6 128 138 119 101 116 119 112 104 97 85 82 92 100 74 69 82 76 66 55 46 43 37 49 193 202 189 173 187 266 262 251 255 272 270 258
196 190 201 135 115 69 18 41 34 92 112 112 88 81 64 21 78 91 70 20 132 129 123 109 102 101 101 93 94 88 72 82 83 68 69 68 61 15 349 18 9 357 4 303 284 285 287 285 275 269 267 270 279 279